�������l�o���
Date,Time,MP-1(��Sv/h),MP-2(��Sv/h),MP-3(��Sv/h),MP-4(��Sv/h),MP-5(��Sv/h),MP-6(��Sv/h),MP-7(��Sv/h),MP-8(��Sv/h),����,����(m/s),���J
2020/09/01,00:00,0.664,0.934,0.600,1.166,0.826,0.380,0.667,0.628,�k�k��,7.1,�L
2020/09/01,00:10,0.665,0.934,0.600,1.169,0.827,0.381,0.669,0.629,�k�k��,7.5,�L
2020/09/01,00:20,0.664,0.933,0.600,1.168,0.828,0.379,0.667,0.628,�k�k��,6.0,�L
2020/09/01,00:30,0.663,0.935,0.601,1.167,0.830,0.381,0.666,0.628,�k�k��,7.1,�L
2020/09/01,00:40,0.664,0.934,0.599,1.168,0.829,0.380,0.667,0.628,�k�k��,6.6,�L
2020/09/01,00:50,0.665,0.935,0.601,1.167,0.828,0.381,0.668,0.629,�k�k��,6.6,�L
2020/09/01,01:00,0.662,0.934,0.600,1.167,0.826,0.380,0.667,0.629,�k�k��,7.9,�L
2020/09/01,01:10,0.664,0.937,0.601,1.166,0.829,0.379,0.669,0.629,�k�k��,8.0,�L
2020/09/01,01:20,0.666,0.935,0.601,1.167,0.829,0.382,0.668,0.629,�k�k��,6.5,�L
2020/09/01,01:30,0.663,0.936,0.601,1.169,0.829,0.380,0.668,0.627,�k�k��,7.0,��
2020/09/01,01:40,0.663,0.936,0.602,1.170,0.831,0.380,0.667,0.628,�k�k��,7.2,�L
2020/09/01,01:50,0.665,0.939,0.601,1.169,0.830,0.380,0.668,0.627,�k�k��,6.8,�L
2020/09/01,02:00,0.664,0.936,0.602,1.168,0.833,0.379,0.669,0.629,�k�k��,7.8,��
2020/09/01,02:10,0.666,0.936,0.602,1.168,0.831,0.381,0.667,0.628,�k�k��,6.9,�L
2020/09/01,02:20,0.663,0.938,0.601,1.169,0.831,0.382,0.669,0.630,�k�k��,6.8,�L
2020/09/01,02:30,0.665,0.936,0.601,1.168,0.832,0.381,0.668,0.629,�k�k��,6.3,�L
2020/09/01,02:40,0.666,0.935,0.601,1.170,0.829,0.381,0.669,0.631,�k�k��,6.7,��
2020/09/01,02:50,0.666,0.938,0.602,1.171,0.831,0.380,0.669,0.630,�k�k��,6.8,��
2020/09/01,03:00,0.664,0.938,0.602,1.169,0.831,0.382,0.669,0.631,�k�k��,6.9,��
2020/09/01,03:10,0.665,0.938,0.600,1.169,0.832,0.380,0.669,0.630,�k�k��,6.9,�L
2020/09/01,03:20,0.668,0.939,0.601,1.169,0.834,0.380,0.670,0.629,�k�k��,6.0,�L
2020/09/01,03:30,0.668,0.939,0.603,1.171,0.833,0.381,0.668,0.629,�k�k��,7.0,�L
2020/09/01,03:40,0.666,0.940,0.601,1.171,0.831,0.382,0.670,0.628,�k�k��,6.7,�L
2020/09/01,03:50,0.667,0.939,0.601,1.171,0.832,0.380,0.667,0.630,�k�k��,7.5,�L
2020/09/01,04:00,0.664,0.938,0.603,1.173,0.833,0.380,0.670,0.628,�k�k��,7.1,�L
2020/09/01,04:10,0.664,0.940,0.602,1.171,0.832,0.381,0.667,0.628,�k�k��,7.9,�L
2020/09/01,04:20,0.665,0.937,0.601,1.172,0.833,0.382,0.669,0.628,�k�k��,7.7,�L
2020/09/01,04:30,0.664,0.937,0.602,1.170,0.832,0.381,0.669,0.631,�k�k��,7.1,�L
2020/09/01,04:40,0.663,0.934,0.602,1.170,0.830,0.380,0.669,0.628,�k�k��,6.5,�L
2020/09/01,04:50,0.662,0.934,0.600,1.171,0.832,0.382,0.669,0.629,�k�k��,7.1,�L
2020/09/01,05:00,0.663,0.936,0.600,1.170,0.830,0.383,0.668,0.629,�k�k��,7.5,�L
2020/09/01,05:10,0.662,0.934,0.598,1.169,0.830,0.382,0.668,0.629,�k�k��,7.5,�L
2020/09/01,05:20,0.661,0.934,0.598,1.170,0.829,0.380,0.669,0.628,�k��,6.9,�L
2020/09/01,05:30,0.662,0.933,0.598,1.170,0.830,0.381,0.669,0.627,�k�k��,7.7,�L
2020/09/01,05:40,0.661,0.934,0.599,1.168,0.828,0.381,0.668,0.628,�k�k��,6.8,�L
2020/09/01,05:50,0.661,0.935,0.599,1.167,0.830,0.381,0.668,0.628,�k�k��,6.0,�L
2020/09/01,06:00,0.663,0.935,0.600,1.167,0.828,0.379,0.669,0.627,�k�k��,7.2,�L
2020/09/01,06:10,0.660,0.935,0.601,1.167,0.828,0.381,0.670,0.627,�k�k��,6.6,�L
2020/09/01,06:20,0.661,0.936,0.599,1.170,0.830,0.378,0.670,0.628,�k�k��,6.5,�L
2020/09/01,06:30,0.661,0.935,0.601,1.167,0.830,0.379,0.668,0.629,�k�k��,6.1,��
2020/09/01,06:40,0.662,0.936,0.601,1.166,0.830,0.380,0.669,0.629,�k�k��,6.7,��
2020/09/01,06:50,0.662,0.938,0.601,1.169,0.831,0.379,0.668,0.628,�k�k��,6.3,��
2020/09/01,07:00,0.666,0.935,0.604,1.169,0.832,0.381,0.669,0.628,�k�k��,6.3,��
2020/09/01,07:10,0.665,0.937,0.603,1.170,0.829,0.380,0.669,0.629,�k�k��,6.1,�L
2020/09/01,07:20,0.664,0.937,0.603,1.167,0.834,0.380,0.669,0.629,�k�k��,6.4,�L
2020/09/01,07:30,0.664,0.937,0.602,1.169,0.830,0.380,0.670,0.628,�k�k��,6.7,��
2020/09/01,07:40,0.665,0.937,0.603,1.169,0.829,0.381,0.671,0.629,�k�k��,5.8,�L
2020/09/01,07:50,0.664,0.937,0.604,1.170,0.829,0.380,0.669,0.629,�k�k��,6.0,��
2020/09/01,08:00,0.663,0.937,0.602,1.170,0.829,0.380,0.671,0.628,�k�k��,6.4,��
2020/09/01,08:10,0.666,0.937,0.602,1.168,0.829,0.381,0.669,0.627,�k�k��,6.2,�L
2020/09/01,08:20,0.664,0.935,0.601,1.170,0.829,0.379,0.670,0.628,�k�k��,6.0,�L
2020/09/01,08:30,0.664,0.933,0.603,1.170,0.831,0.380,0.670,0.629,�k�k��,5.2,�L
2020/09/01,08:40,0.667,0.935,0.601,1.170,0.830,0.380,0.670,0.629,�k�k��,4.6,�L
2020/09/01,08:50,0.664,0.934,0.602,1.168,0.832,0.380,0.670,0.627,�k�k��,4.7,��
2020/09/01,09:00,0.666,0.935,0.601,1.171,0.830,0.381,0.671,0.628,�k�k��,5.8,��
2020/09/01,09:10,0.666,0.934,0.603,1.170,0.831,0.382,0.672,0.627,�k�k��,4.5,�L
2020/09/01,09:20,0.666,0.932,0.603,1.171,0.834,0.382,0.670,0.630,�k�k��,3.9,�L
2020/09/01,09:30,0.669,0.935,0.602,1.173,0.834,0.381,0.671,0.630,�k�k��,4.6,��
2020/09/01,09:40,0.667,0.936,0.604,1.170,0.830,0.382,0.671,0.629,�k�k��,5.1,��
2020/09/01,09:50,0.667,0.936,0.603,1.169,0.832,0.382,0.672,0.630,�k�k��,4.0,�L
2020/09/01,10:00,0.669,0.936,0.604,1.174,0.834,0.381,0.671,0.628,�k�k��,4.9,�L
2020/09/01,10:10,0.668,0.936,0.601,1.174,0.829,0.383,0.671,0.631,�k�k��,4.2,�L
2020/09/01,10:20,0.668,0.936,0.604,1.171,0.834,0.383,0.672,0.630,�k,2.5,�L
2020/09/01,10:30,0.668,0.935,0.604,1.173,0.834,0.381,0.673,0.630,�k�k��,4.0,��
2020/09/01,10:40,0.667,0.937,0.604,1.175,0.833,0.382,0.674,0.628,�k,4.4,��
2020/09/01,10:50,0.668,0.935,0.604,1.173,0.834,0.381,0.673,0.630,�k,4.2,��
2020/09/01,11:00,0.668,0.937,0.605,1.175,0.835,0.381,0.672,0.629,�k,2.9,��
2020/09/01,11:10,0.669,0.940,0.605,1.174,0.835,0.382,0.672,0.631,�k,3.9,��
2020/09/01,11:20,0.669,0.941,0.605,1.176,0.836,0.384,0.673,0.631,�k,4.0,��
2020/09/01,11:30,0.668,0.939,0.606,1.174,0.836,0.381,0.673,0.631,�k,4.1,�L
2020/09/01,11:40,0.664,0.937,0.606,1.173,0.835,0.383,0.672,0.631,�k�k��,4.3,�L
2020/09/01,11:50,0.665,0.934,0.603,1.171,0.829,0.383,0.673,0.629,�k�k��,3.7,�L
2020/09/01,12:00,0.665,0.936,0.605,1.171,0.830,0.381,0.671,0.629,�k�k��,4.5,�L
2020/09/01,12:10,0.666,0.941,0.606,1.169,0.829,0.382,0.671,0.627,�k,4.2,�L
2020/09/01,12:20,0.667,0.937,0.605,1.170,0.828,0.381,0.671,0.628,�k,4.0,�L
2020/09/01,12:30,0.664,0.937,0.604,1.168,0.827,0.383,0.670,0.627,�k�k��,3.4,�L
2020/09/01,12:40,0.665,0.937,0.606,1.167,0.831,0.381,0.671,0.628,�k�k��,3.3,�L
2020/09/01,12:50,0.667,0.938,0.605,1.168,0.829,0.382,0.671,0.628,�k,3.0,�L
2020/09/01,13:00,0.668,0.938,0.603,1.166,0.829,0.382,0.671,0.628,�k,2.3,�L
2020/09/01,13:10,0.668,0.935,0.605,1.167,0.829,0.381,0.670,0.627,�k,2.9,�L
2020/09/01,13:20,0.666,0.931,0.603,1.164,0.826,0.380,0.671,0.630,�k�k��,2.6,�L
2020/09/01,13:30,0.659,0.922,0.601,1.156,0.820,0.379,0.668,0.626,�k,2.0,�L
2020/09/01,13:40,0.660,0.911,0.597,1.151,0.814,0.377,0.667,0.625,�k�k��,1.7,�L
2020/09/01,13:50,0.657,0.909,0.596,1.145,0.812,0.376,0.664,0.623,-,CALM,�L
2020/09/01,14:00,0.656,0.910,0.595,1.143,0.802,0.375,0.660,0.621,���쐼,0.6,�L
2020/09/01,14:10,0.658,0.915,0.597,1.144,0.803,0.375,0.662,0.623,���k��,0.6,�L
2020/09/01,14:20,0.660,0.916,0.598,1.146,0.808,0.377,0.664,0.625,���k��,1.5,�L
2020/09/01,14:30,0.660,0.920,0.601,1.147,0.809,0.377,0.665,0.625,�k��,2.2,�L
2020/09/01,14:40,0.661,0.919,0.599,1.151,0.813,0.378,0.665,0.627,�k��,1.7,�L
2020/09/01,14:50,0.661,0.922,0.600,1.153,0.814,0.377,0.664,0.626,�k��,2.0,��
2020/09/01,15:00,0.660,0.923,0.601,1.154,0.816,0.377,0.666,0.625,�k�k��,1.7,��
2020/09/01,15:10,0.661,0.923,0.603,1.156,0.815,0.378,0.665,0.627,�k��,1.7,��
2020/09/01,15:20,0.663,0.925,0.602,1.157,0.817,0.380,0.666,0.625,�k��,2.3,�L
2020/09/01,15:30,0.664,0.927,0.601,1.155,0.818,0.379,0.668,0.627,�k�k��,2.3,�L
2020/09/01,15:40,0.663,0.927,0.600,1.154,0.818,0.379,0.668,0.626,�k��,3.0,�L
2020/09/01,15:50,0.663,0.926,0.598,1.154,0.819,0.379,0.668,0.626,�k��,3.0,��
2020/09/01,16:00,0.664,0.928,0.601,1.155,0.820,0.379,0.668,0.626,�k��,3.0,��
2020/09/01,16:10,0.663,0.931,0.601,1.157,0.820,0.378,0.668,0.627,�k��,2.9,��
2020/09/01,16:20,0.663,0.930,0.601,1.159,0.820,0.378,0.668,0.627,�k��,3.1,�L
2020/09/01,16:30,0.662,0.930,0.600,1.157,0.820,0.379,0.669,0.626,�k��,3.0,��
2020/09/01,16:40,0.661,0.930,0.602,1.159,0.822,0.380,0.668,0.627,�k��,2.6,��
2020/09/01,16:50,0.663,0.932,0.603,1.158,0.822,0.377,0.668,0.627,�k��,2.9,��
2020/09/01,17:00,0.662,0.934,0.603,1.158,0.824,0.381,0.669,0.627,���k��,3.2,��
2020/09/01,17:10,0.663,0.931,0.602,1.162,0.823,0.380,0.668,0.628,���k��,3.5,��
2020/09/01,17:20,0.661,0.930,0.602,1.158,0.822,0.380,0.669,0.628,���k��,3.0,��
2020/09/01,17:30,0.662,0.931,0.603,1.160,0.824,0.380,0.667,0.626,���k��,2.6,�L
2020/09/01,17:40,0.664,0.933,0.602,1.160,0.825,0.382,0.668,0.628,���k��,2.3,�L
2020/09/01,17:50,0.664,0.933,0.603,1.161,0.826,0.381,0.670,0.629,���k��,2.6,�L
2020/09/01,18:00,0.663,0.936,0.604,1.160,0.825,0.380,0.668,0.630,���k��,4.0,��
2020/09/01,18:10,0.663,0.933,0.603,1.160,0.826,0.382,0.669,0.628,��,5.8,��
2020/09/01,18:20,0.665,0.935,0.604,1.160,0.826,0.382,0.669,0.629,��,5.8,��
2020/09/01,18:30,0.663,0.937,0.603,1.161,0.826,0.384,0.669,0.629,��,6.5,��
2020/09/01,18:40,0.665,0.936,0.605,1.163,0.827,0.381,0.669,0.629,��,6.9,��
2020/09/01,18:50,0.664,0.938,0.604,1.161,0.827,0.382,0.672,0.629,��,8.3,��
2020/09/01,19:00,0.666,0.936,0.605,1.162,0.829,0.383,0.670,0.631,��,8.4,��
2020/09/01,19:10,0.663,0.938,0.604,1.161,0.827,0.382,0.670,0.631,��,8.5,��
2020/09/01,19:20,0.664,0.936,0.604,1.161,0.827,0.382,0.670,0.632,��,8.6,�L
2020/09/01,19:30,0.665,0.937,0.606,1.163,0.827,0.382,0.668,0.631,��,10.0,�L
2020/09/01,19:40,0.665,0.936,0.603,1.162,0.828,0.382,0.670,0.629,��,9.8,�L
2020/09/01,19:50,0.664,0.937,0.603,1.162,0.828,0.381,0.672,0.629,��,8.0,��
2020/09/01,20:00,0.662,0.938,0.605,1.163,0.827,0.382,0.671,0.629,��,7.4,��
2020/09/01,20:10,0.665,0.938,0.604,1.165,0.828,0.381,0.671,0.627,���k��,7.1,�L
2020/09/01,20:20,0.664,0.935,0.606,1.163,0.827,0.382,0.671,0.629,��,7.3,�L
2020/09/01,20:30,0.662,0.935,0.602,1.160,0.824,0.381,0.670,0.630,��,6.9,�L
2020/09/01,20:40,0.661,0.929,0.602,1.161,0.825,0.380,0.670,0.628,��,7.2,�L
2020/09/01,20:50,0.662,0.931,0.602,1.160,0.822,0.381,0.670,0.629,��,7.3,�L
2020/09/01,21:00,0.663,0.930,0.603,1.161,0.824,0.380,0.669,0.629,��,7.6,�L
2020/09/01,21:10,0.663,0.932,0.601,1.160,0.822,0.382,0.669,0.628,��,7.4,�L
2020/09/01,21:20,0.662,0.930,0.600,1.161,0.823,0.380,0.668,0.629,��,6.4,�L
2020/09/01,21:30,0.660,0.925,0.602,1.159,0.822,0.382,0.669,0.630,��,5.8,��
2020/09/01,21:40,0.660,0.925,0.600,1.159,0.826,0.382,0.670,0.628,��,5.6,�L
2020/09/01,21:50,0.662,0.927,0.601,1.159,0.824,0.381,0.670,0.629,��,5.7,��
2020/09/01,22:00,0.662,0.926,0.602,1.160,0.822,0.382,0.670,0.630,��,6.8,�L
2020/09/01,22:10,0.665,0.928,0.601,1.162,0.823,0.382,0.670,0.630,��,6.6,��
2020/09/01,22:20,0.662,0.929,0.601,1.161,0.823,0.381,0.669,0.628,��,6.9,�L
2020/09/01,22:30,0.662,0.929,0.602,1.160,0.825,0.382,0.670,0.631,��,6.6,�L
2020/09/01,22:40,0.662,0.929,0.601,1.161,0.826,0.383,0.670,0.629,��,7.6,�L
2020/09/01,22:50,0.660,0.930,0.602,1.163,0.827,0.381,0.671,0.630,��,7.5,��
2020/09/01,23:00,0.662,0.930,0.602,1.160,0.826,0.382,0.669,0.630,��,7.3,��
2020/09/01,23:10,0.663,0.931,0.602,1.159,0.825,0.380,0.669,0.630,��,7.4,��
2020/09/01,23:20,0.663,0.930,0.600,1.161,0.825,0.381,0.670,0.629,��,6.8,��
2020/09/01,23:30,0.663,0.931,0.602,1.161,0.826,0.382,0.672,0.629,��,5.4,��
2020/09/01,23:40,0.664,0.931,0.601,1.161,0.825,0.381,0.671,0.628,��,4.7,��
2020/09/01,23:50,0.663,0.931,0.602,1.160,0.825,0.381,0.671,0.628,��,3.8,�L
